Home > Weather > Manizales > Past weeks

Flag for Colombia Past Weather in Manizales, Colombia — Yesterday and Last 2 Weeks

Now
68 °F

Passing clouds.


Feels Like: 68 °F
Forecast: 56 / 70 °F
Wind: 2 mph from North

Location: Pereira / Matecana

Current Time: May 31, 2016 at 8:56:19 PM

Latest Report: May 31, 2016 at 8:00 PM


Visibility: N/A

Pressure: 30.04 "Hg (23.41 "Hg at 2139m altitude)

Humidity: 94%

Dew Point: 66 °F

Location of ManizalesLocation

Past Weather in Manizales — Graph

°F

Manizales Temperature Yesterday

Maximum temperature yesterday: 81 °F (at 2:00 PM)
Minimum temperature yesterday: 64 °F (at 5:00 AM)
Average temperature yesterday: 72 °F

High & Low Weather Summary for the Past Weeks

 TemperatureHumidityPressure
High88 °F (May 21, 2:00 PM)100% (May 29, 8:00 AM)30.18 "Hg (May 29, 8:00 AM)
Low63 °F (May 27, 5:00 AM)51% (May 17, 2:00 PM)29.92 "Hg (May 19, 4:00 PM)
Average74 °F79%30.06 "Hg
* Reported May 16 7:00 PM — May 31 7:00 PM, Manizales, Weather by CustomWeather, © 2016

Note: Actual official high and low records may vary slightly from our data, if they occured in-between our weather recording intervals... More about our weather records

Advertising

Manizales Weather History for the Previous 24 Hours

Scroll right to see more
 ConditionsComfort  
Time TempWeatherWind HumidityBarometerVisibility
7:00 PM
Tue, May 31
70 °FPassing clouds.2 mph88%30.02 "Hg6 mi
6:00 PM73 °FScattered clouds.2 mph78%30.01 "HgN/A
5:00 PM73 °FScattered clouds.2 mph74%29.99 "HgN/A
4:00 PM75 °FScattered clouds.5 mph69%29.99 "HgN/A
3:00 PM77 °FScattered clouds.5 mph65%30.00 "HgN/A
2:00 PM75 °FScattered clouds.6 mph74%30.02 "HgN/A
1:00 PM75 °FScattered clouds.2 mph74%30.06 "HgN/A
12:00 PM72 °FBroken clouds.3 mph83%30.10 "HgN/A
11:00 AM68 °FPartly sunny.5 mph88%30.12 "Hg3 mi
10:00 AM66 °FPartly sunny.2 mph94%30.15 "Hg2 mi
9:00 AM64 °FPartly sunny.2 mph100%30.13 "Hg1 mi
8:00 AM64 °FDrizzle. Partly sunny.2 mph100%30.12 "Hg1 mi
7:00 AM64 °FRain. Fog.2 mph100%30.10 "Hg1 mi
6:00 AM64 °FLight rain. Partly sunny.2 mph100%30.07 "Hg1 mi
5:00 AM64 °FThunderstorms. Partly cloudy.5 mph100%30.06 "Hg5 mi
1:00 AM68 °FPassing clouds.7 mph83%30.05 "HgN/A
12:00 AM68 °FPassing clouds.9 mph78%30.06 "HgN/A
11:00 PM
Mon, May 30
70 °FPassing clouds.9 mph78%30.06 "HgN/A
10:00 PM70 °FPassing clouds.9 mph78%30.06 "HgN/A
9:00 PM70 °FPassing clouds.9 mph78%30.05 "HgN/A
8:00 PM72 °FPassing clouds.9 mph78%30.02 "HgN/A
Weather by CustomWeather, © 2016

See weather overviewHow to use our weather pages